7 * 24
多渠道服务支持
STARLINK-6145是美国太空探索技术公司 SpaceX 星链星座的一员,于2023年5月4日发射升空,属于星链低轨卫星互联网组网卫星,运行在近地轨道,依托星链系统可提供全球覆盖的高速互联网服务,尤其可为偏远地区、海上、航空等场景提供网络连接支持,也可服务于军事通信等特殊应用场景,是星链大规模组网部署中的一环。
美国
(US)
| 数据来源 | 国际轨道数据 |
| 星历时间: | 2026-09-04T10:31:38+0800 17小时前 查看轨道信息 |
| 半长轴: | 6861.286km |
| 偏心率: | 0.0001916 |
| 轨道倾角: | 43.003° |
| 近地点辐角 | 276.697° |
| 升交点赤经 | 270.500° |
| 平近点角 | 83.366° |
| 近地点: | 481.834km |
| 远地点: | 484.464km |
| 周期: | 94.269分钟 |
| 每日圈数: | 15.275469 |